STARLINK-35998, 68055

Orbit data source: Space-Track

STARLINK-35998, 68055 is a payload satellite owned by SpaceX/Seattle (US) in LEO that was launched on Mon, 02 Mar 2026 UTC via an FALCON 9 launch vehicle from the Air Force Eastern Test Range (AFETR). Payload-class satellites include a variety of spacecraft equipped with specific instruments for various scientific and technological missions. These include communications satellites like Starlink; space stations such as the ISS; scientific satellites like the Hubble; Earth observation satellites from companies like Planet Labs, Umbra, and HawkEye 360; GPS; miniature CubeSats for education and research; and military/defense satellites.

Loading next visibility...
Identifier
68055, 2026-041R
Orbit
LEO
Country
Flag of USUS
Related business
Manufacturer
SpaceX/Seattle
Mission
Operational Commercial Communications
Bus & Motor
STARLINK V2MO, Unknown motor
Mass
575 kg wet, ~530 kg dry
Launch date (UTC)
2026-03-02 (2 months ago)
Launch vehicle
FALCON 9
Launch site
Air Force Eastern Test Range (AFETR)
Object type
Payload
Rocket body
Debris
Shape & HBR
Box + 2 Pan, 17.7 m
Radar Cross Section
36.964 m²

Expand to show TLE details & history
Last TLE update: 19 hours ago

TLE from 19 hours ago
0 STARLINK-35998
1 68055U 26041R   26118.64699433  .00016560  00000-0  57006-3 0  9998
2 68055  53.1581 178.0661 0000994  72.6851 287.4258 15.30195477  9039
Epoch: 2026-04-28T15:31Z
TLE epoch observation values (Epoch: 2026-04-28T15:31:40.310Z)
Latitude
-0.00004°
Longitude
88.5288°
Altitude
475.924 km
Speed
7.629 km/s
True Right ascension
11h 52m 15s
True Declination
0° 00' 00"
Sunlit
Object was in full shadow at epoch
Visualization orbit readout
Latitude
Unknown
Longitude
Unknown
Altitude
Unknown
Speed
Unknown
Apparent Right ascension
Unknown
Apparent Declination
Unknown
Sunlit
N/A
Visualization observer readout
Local Sidereal Time
18:20:21
Azimuth
Unknown
Elevation
Unknown
Doppler factor
Unknown
Orbital elements
Apogee altitude
476.167 km
Perigee altitude
474.804 km
Semi-major axis
6,853.622 km
Eccentricity
0.0001
Inclination
53.1581°
RAAN
178.0661°
Arg. of periapsis
72.6851°
True anomaly
287.41493°
Mean anomaly
287.4258°
Eccentric anomaly
287.42037°
Mean motion
3.82528 °/min
Orbital period
94.11 mins
BSTAR
0.00057006
Loading maneuver chart data...
Computing Atmospheric mass density...
Loading historical data...
Loading historical data...
Loading historical data...
Loading historical data...
Loading historical data...
Loading historical data...
Loading historical data...

Documentation

Showing up to 5 results
|